Hourly Data Report for September 08, 2017

All times are specified in Local Standard Time (LST). Add 1 hour to adjust for Daylight Saving Time where and when it is observed.

DOAKTOWN AUTO RCS
NEW BRUNSWICK

46°35'06.090" N
66°00'35.071" W
43.00 m
8101201
71038
ADN

Download Data

Hourly Data (September 2017)
Hourly Data Report for September 8, 2017
Temp Definition
°C
Dew Point Temp Definition
°C
Rel Hum Definition
%
Wind Dir Definition
10's deg

Wind Spd Definition
km/h
Visibility Definition
km
Stn Press Definition
kPa
Hmdx Definition


Wind Chill Definition


Weather Definition


TIME
00:00 15.3 14.1 92 26 5   100.23     LegendNANA
01:00 14.4 13.3 94 25 7   100.29     LegendNANA
02:00 13.1 12.2 94 25 3   100.32     LegendNANA
03:00 12.0 11.3 95   0   100.35     LegendNANA
04:00 12.0 11.4 96 27 3   100.36     LegendNANA
05:00 11.5 10.8 96 27 4   100.43     LegendNANA
06:00 10.5 9.9 96 24 3   100.48     LegendNANA
07:00 12.0 11.3 96 25 5   100.59     LegendNANA
08:00 14.5 12.6 88 24 7   100.67     LegendNANA
09:00 15.9 12.0 78 24 13   100.75     LegendNANA
10:00 17.0 12.0 72 26 14   100.78     LegendNANA
11:00 18.6 11.4 63 23 14   100.79     LegendNANA
12:00 19.7 11.0 57 24 12   100.81     LegendNANA
13:00 20.9 10.9 53 23 16   100.83     LegendNANA
14:00 21.3 9.0 45 26 19   100.85     LegendNANA
15:00 21.8 9.2 45 25 19   100.85     LegendNANA
16:00 22.0 8.8 43 24 10   100.88     LegendNANA
17:00 20.2 9.4 50 24 9   100.93     LegendNANA
18:00 18.6 11.6 64 27 2   100.96     LegendNANA
19:00 16.6 12.7 77 29 3   101.04     LegendNANA
20:00 15.4 12.5 83   0   101.14     LegendNANA
21:00 14.4 11.8 85 26 4   101.19     LegendNANA
22:00 13.3 11.5 89 23 1   101.24     LegendNANA
23:00 12.6 11.2 92   0   101.26     LegendNANA

Notes on Data Quality.

Legend

  • E = Estimated
  • M = Missing
  • NA = Not Available
  • ‡ = Partner data that is not subject to review by the National Climate Archives
Date modified: